| time (UTC) | temp C | wind direction | speed KPH | gust KPH | rain 1hr cm | rain 24hr cm | rain mn cm | humidity % | barometer mb |
| 20260509035419 | 7 | 222 | 0.0 | 0.0 | 0.00 | 0.00 | 0.00 | 77 | 1024.0 |
| 20260509034915 | 7 | 200 | 1.6 | 1.6 | 0.00 | 0.00 | 0.00 | 79 | 1024.4 |
| 20260509034414 | 7 | 225 | 0.0 | 0.0 | 0.00 | 0.00 | 0.00 | 79 | 1024.4 |
| 20260509033910 | 7 | 151 | 3.2 | 3.2 | 0.00 | 0.00 | 0.00 | 77 | 1024.5 |
| 20260509033407 | 7 | 205 | 1.6 | 1.6 | 0.00 | 0.00 | 0.00 | 78 | 1024.4 |
| 20260509032904 | 8 | 215 | 0.0 | 0.0 | 0.00 | 0.00 | 0.00 | 77 | 1024.6 |
| 20260509032401 | 8 | 221 | 3.2 | 3.2 | 0.00 | 0.00 | 0.00 | 75 | 1024.5 |
| 20260509031859 | 7 | 160 | 4.8 | 4.8 | 0.00 | 0.00 | 0.00 | 77 | 1024.6 |
| 20260509031356 | 8 | 234 | 1.6 | 1.6 | 0.00 | 0.00 | 0.00 | 80 | 1025.0 |
| 20260509030853 | 7 | 199 | 1.6 | 1.6 | 0.00 | 0.00 | 0.00 | 76 | 1024.2 |
| 20260509030351 | 7 | 221 | 0.0 | 0.0 | 0.00 | 0.00 | 0.00 | 76 | 1024.4 |
| 20260509025848 | 7 | 223 | 0.0 | 0.0 | 0.00 | 0.00 | 0.00 | 77 | 1024.1 |
| 20260509025343 | 8 | 220 | 0.0 | 0.0 | 0.00 | 0.00 | 0.00 | 75 | 1023.7 |
| 20260509024839 | 8 | 222 | 0.0 | 0.0 | 0.00 | 0.00 | 0.00 | 75 | 1024.1 |
| 20260509024335 | 8 | 226 | 0.0 | 0.0 | 0.00 | 0.00 | 0.00 | 74 | 1023.7 |
| 20260509023833 | 8 | 313 | 1.6 | 1.6 | 0.00 | 0.00 | 0.00 | 74 | 1023.7 |
| 20260509023330 | 9 | 160 | 3.2 | 3.2 | 0.00 | 0.00 | 0.00 | 72 | 1023.5 |
| 20260509022827 | 10 | 227 | 1.6 | 1.6 | 0.00 | 0.00 | 0.00 | 70 | 1023.5 |
| 20260509022324 | 9 | 163 | 3.2 | 3.2 | 0.00 | 0.00 | 0.00 | 71 | 1023.5 |
| 20260509021820 | 9 | 222 | 0.0 | 0.0 | 0.00 | 0.00 | 0.00 | 70 | 1023.6 |
| 20260509021318 | 9 | 186 | 1.6 | 3.2 | 0.00 | 0.00 | 0.00 | 71 | 1023.8 |
| 20260509020815 | 9 | 203 | 1.6 | 1.6 | 0.00 | 0.00 | 0.00 | 73 | 1023.7 |
| 20260509020313 | 10 | 224 | 1.6 | 1.6 | 0.00 | 0.00 | 0.00 | 72 | 1023.6 |
| 20260509015811 | 10 | 241 | 0.0 | 0.0 | 0.00 | 0.00 | 0.00 | 67 | 1023.5 |
| 20260509015309 | 10 | 198 | 1.6 | 1.6 | 0.00 | 0.00 | 0.00 | 67 | 1023.2 |
| 20260509014805 | 11 | 196 | 1.6 | 1.6 | 0.00 | 0.00 | 0.00 | 66 | 1023.2 |
| 20260509014302 | 11 | 224 | 0.0 | 0.0 | 0.00 | 0.00 | 0.00 | 66 | 1023.5 |
| 20260509013758 | 11 | 221 | 0.0 | 0.0 | 0.00 | 0.00 | 0.00 | 62 | 1023.3 |
| 20260509013254 | 11 | 197 | 1.6 | 1.6 | 0.00 | 0.00 | 0.00 | 62 | 1023.2 |
| 20260509012751 | 12 | 211 | 0.0 | 1.6 | 0.00 | 0.00 | 0.00 | 62 | 1023.3 |
| 20260509012248 | 12 | 210 | 0.0 | 0.0 | 0.00 | 0.00 | 0.00 | 63 | 1023.3 |
| 20260509011745 | 12 | 223 | 0.0 | 0.0 | 0.00 | 0.00 | 0.00 | 60 | 1023.2 |
| 20260509011243 | 12 | 234 | 0.0 | 0.0 | 0.00 | 0.00 | 0.00 | 59 | 1023.2 |
| 20260509010740 | 12 | 240 | 0.0 | 0.0 | 0.00 | 0.00 | 0.00 | 58 | 1023.1 |
| 20260509010236 | 13 | 188 | 1.6 | 3.2 | 0.00 | 0.00 | 0.00 | 57 | 1023.0 |
| 20260509005734 | 13 | 191 | 1.6 | 1.6 | 0.00 | 0.00 | 0.00 | 59 | 1023.1 |
| 20260509005231 | 13 | 225 | 0.0 | 0.0 | 0.00 | 0.00 | 0.00 | 57 | 1023.1 |
| 20260509004725 | 13 | 228 | 1.6 | 3.2 | 0.00 | 0.00 | 0.00 | 54 | 1022.8 |
| 20260509004224 | 13 | 123 | 3.2 | 4.8 | 0.00 | 0.00 | 0.00 | 56 | 1023.1 |
| 20260509003721 | 13 | 349 | 6.4 | 9.7 | 0.00 | 0.00 | 0.00 | 55 | 1023.0 |
| 20260509003219 | 13 | 218 | 4.8 | 4.8 | 0.00 | 0.00 | 0.00 | 56 | 1023.0 |
| 20260509002716 | 13 | 224 | 0.0 | 0.0 | 0.00 | 0.00 | 0.00 | 57 | 1023.1 |
| 20260509002214 | 13 | 303 | 4.8 | 4.8 | 0.00 | 0.00 | 0.00 | 57 | 1023.1 |
| 20260509001711 | 13 | 262 | 1.6 | 1.6 | 0.00 | 0.00 | 0.00 | 56 | 1023.0 |
| 20260509001206 | 14 | 152 | 3.2 | 3.2 | 0.00 | 0.00 | 0.00 | 55 | 1023.1 |
| 20260509000705 | 13 | 305 | 0.0 | 1.6 | 0.00 | 0.00 | 0.00 | 56 | 1023.1 |
| 20260509000204 | 13 | 206 | 1.6 | 3.2 | 0.00 | 0.00 | 0.00 | 57 | 1023.3 |
| 20260508235658 | 13 | 106 | 4.8 | 9.7 | 0.00 | 0.00 | 0.00 | 56 | 1023.2 |
| 20260508235155 | 13 | 195 | 1.6 | 1.6 | 0.00 | 0.00 | 0.00 | 57 | 1023.2 |
| 20260508234652 | 13 | 210 | 0.0 | 0.0 | 0.00 | 0.00 | 0.00 | 57 | 1023.1 |
| 20260508234148 | 13 | 220 | 0.0 | 0.0 | 0.00 | 0.00 | 0.00 | 56 | 1023.0 |
| 20260508233643 | 13 | 243 | 3.2 | 3.2 | 0.00 | 0.00 | 0.00 | 56 | 1023.0 |
| 20260508233140 | 13 | 264 | 0.0 | 1.6 | 0.00 | 0.00 | 0.00 | 56 | 1023.0 |
| 20260508232637 | 13 | 111 | 4.8 | 4.8 | 0.00 | 0.00 | 0.00 | 57 | 1023.0 |
| 20260508232133 | 13 | 215 | 3.2 | 3.2 | 0.00 | 0.00 | 0.00 | 57 | 1022.8 |
| 20260508231631 | 13 | 175 | 1.6 | 3.2 | 0.00 | 0.00 | 0.00 | 56 | 1022.6 |
| 20260508231127 | 13 | 259 | 4.8 | 4.8 | 0.00 | 0.00 | 0.00 | 56 | 1022.7 |
| 20260508230618 | 13 | 33 | 8.0 | 11.3 | 0.00 | 0.00 | 0.00 | 56 | 1023.0 |
| 20260508230115 | 13 | 231 | 4.8 | 4.8 | 0.00 | 0.00 | 0.00 | 55 | 1022.6 |
| 20260508225613 | 14 | 143 | 0.0 | 1.6 | 0.00 | 0.00 | 0.00 | 55 | 1022.7 |
| 20260508225108 | 13 | 221 | 0.0 | 1.6 | 0.00 | 0.00 | 0.00 | 56 | 1022.8 |
| 20260508224607 | 13 | 225 | 0.0 | 0.0 | 0.00 | 0.00 | 0.00 | 55 | 1022.8 |
| 20260508224104 | 13 | 97 | 3.2 | 3.2 | 0.00 | 0.00 | 0.00 | 55 | 1022.7 |
| 20260508223602 | 14 | 227 | 3.2 | 4.8 | 0.00 | 0.00 | 0.00 | 53 | 1022.7 |
| 20260508223059 | 13 | 351 | 3.2 | 4.8 | 0.00 | 0.00 | 0.00 | 55 | 1022.5 |
| 20260508222556 | 15 | 169 | 3.2 | 3.2 | 0.00 | 0.00 | 0.00 | 54 | 1022.7 |
| 20260508222053 | 15 | 261 | 4.8 | 4.8 | 0.00 | 0.00 | 0.00 | 54 | 1023.0 |
| 20260508221549 | 13 | 104 | 1.6 | 1.6 | 0.00 | 0.00 | 0.00 | 53 | 1022.8 |
| 20260508221045 | 15 | 187 | 4.8 | 4.8 | 0.00 | 0.00 | 0.00 | 52 | 1022.7 |
| 20260508220542 | 15 | 80 | 4.8 | 8.0 | 0.00 | 0.00 | 0.00 | 53 | 1022.8 |
| 20260508220038 | 15 | 222 | 1.6 | 3.2 | 0.00 | 0.00 | 0.00 | 53 | 1022.8 |
| 20260508215535 | 15 | 56 | 1.6 | 3.2 | 0.00 | 0.00 | 0.00 | 50 | 1023.0 |
| 20260508215032 | 16 | 56 | 6.4 | 9.7 | 0.00 | 0.00 | 0.00 | 50 | 1022.8 |
| 20260508214530 | 15 | 232 | 3.2 | 3.2 | 0.00 | 0.00 | 0.00 | 51 | 1022.8 |
| 20260508214026 | 16 | 121 | 6.4 | 11.3 | 0.00 | 0.00 | 0.00 | 50 | 1022.8 |
| 20260508213524 | 16 | 243 | 4.8 | 8.0 | 0.00 | 0.00 | 0.00 | 50 | 1022.7 |
| 20260508213019 | 16 | 136 | 9.7 | 14.5 | 0.00 | 0.00 | 0.00 | 49 | 1022.8 |
| 20260508212515 | 16 | 179 | 3.2 | 9.7 | 0.00 | 0.00 | 0.00 | 51 | 1023.0 |
| 20260508212012 | 16 | 199 | 8.0 | 11.3 | 0.00 | 0.00 | 0.00 | 50 | 1022.8 |
| 20260508211507 | 15 | 210 | 3.2 | 3.2 | 0.00 | 0.00 | 0.00 | 51 | 1022.7 |
| 20260508211004 | 14 | 340 | 4.8 | 8.0 | 0.00 | 0.00 | 0.00 | 54 | 1023.0 |
| 20260508210500 | 13 | 295 | 4.8 | 4.8 | 0.00 | 0.00 | 0.00 | 55 | 1023.2 |
| 20260508205957 | 15 | 192 | 6.4 | 11.3 | 0.00 | 0.00 | 0.00 | 55 | 1023.1 |
| 20260508205455 | 15 | 110 | 4.8 | 9.7 | 0.00 | 0.00 | 0.00 | 53 | 1023.1 |
| 20260508204951 | 17 | 301 | 3.2 | 3.2 | 0.00 | 0.00 | 0.00 | 49 | 1023.2 |
| 20260508204448 | 14 | 259 | 3.2 | 4.8 | 0.00 | 0.00 | 0.00 | 54 | 1023.1 |
| 20260508203943 | 14 | 48 | 3.2 | 4.8 | 0.00 | 0.00 | 0.00 | 53 | 1023.0 |
| 20260508203440 | 14 | 318 | 4.8 | 8.0 | 0.00 | 0.00 | 0.00 | 53 | 1023.2 |
| 20260508202935 | 13 | 280 | 1.6 | 3.2 | 0.00 | 0.00 | 0.00 | 55 | 1023.3 |
| 20260508202433 | 13 | 250 | 4.8 | 4.8 | 0.00 | 0.00 | 0.00 | 56 | 1023.2 |
| 20260508201930 | 15 | 188 | 8.0 | 12.9 | 0.00 | 0.00 | 0.00 | 54 | 1023.3 |
| 20260508201427 | 14 | 320 | 3.2 | 3.2 | 0.00 | 0.00 | 0.00 | 53 | 1023.3 |
| 20260508200924 | 15 | 120 | 12.9 | 22.5 | 0.00 | 0.00 | 0.00 | 52 | 1023.5 |
| 20260508200421 | 14 | 156 | 0.0 | 1.6 | 0.00 | 0.00 | 0.00 | 56 | 1023.0 |
| 20260508195915 | 14 | 142 | 6.4 | 9.7 | 0.00 | 0.00 | 0.00 | 55 | 1023.6 |
| 20260508195413 | 15 | 347 | 4.8 | 8.0 | 0.00 | 0.00 | 0.00 | 54 | 1023.5 |
| 20260508194908 | 15 | 169 | 6.4 | 8.0 | 0.00 | 0.00 | 0.00 | 54 | 1023.5 |
| 20260508194406 | 14 | 47 | 3.2 | 4.8 | 0.00 | 0.00 | 0.00 | 54 | 1023.2 |
| 20260508193857 | 14 | 274 | 4.8 | 8.0 | 0.00 | 0.00 | 0.00 | 56 | 1023.7 |
| 20260508193354 | 14 | 36 | 3.2 | 4.8 | 0.00 | 0.00 | 0.00 | 58 | 1023.6 |
| 20260508192850 | 14 | 217 | 3.2 | 4.8 | 0.00 | 0.00 | 0.00 | 54 | 1023.8 |
| 20260508192347 | 13 | 124 | 4.8 | 4.8 | 0.00 | 0.00 | 0.00 | 55 | 1023.7 |
| 20260508191845 | 14 | 110 | 8.0 | 9.7 | 0.00 | 0.00 | 0.00 | 57 | 1023.8 |
| 20260508191342 | 13 | 106 | 3.2 | 4.8 | 0.00 | 0.00 | 0.00 | 56 | 1023.6 |
| 20260508190839 | 14 | 121 | 6.4 | 8.0 | 0.00 | 0.00 | 0.00 | 54 | 1023.6 |
| 20260508190335 | 14 | 313 | 6.4 | 9.7 | 0.00 | 0.00 | 0.00 | 56 | 1023.7 |
| 20260508185831 | 14 | 23 | 6.4 | 11.3 | 0.00 | 0.00 | 0.00 | 56 | 1023.8 |
| 20260508185329 | 13 | 328 | 4.8 | 8.0 | 0.00 | 0.00 | 0.00 | 58 | 1023.6 |
| 20260508184826 | 14 | 10 | 4.8 | 4.8 | 0.00 | 0.00 | 0.00 | 56 | 1023.8 |
| 20260508184323 | 13 | 131 | 6.4 | 11.3 | 0.00 | 0.00 | 0.00 | 56 | 1023.7 |
| 20260508183820 | 13 | 76 | 6.4 | 9.7 | 0.00 | 0.00 | 0.00 | 56 | 1023.7 |
| 20260508183317 | 13 | 60 | 4.8 | 8.0 | 0.00 | 0.00 | 0.00 | 56 | 1024.1 |
| 20260508182812 | 13 | 176 | 6.4 | 11.3 | 0.00 | 0.00 | 0.00 | 58 | 1023.8 |
| 20260508182309 | 13 | 58 | 4.8 | 4.8 | 0.00 | 0.00 | 0.00 | 57 | 1023.8 |
| 20260508181805 | 14 | 218 | 0.0 | 1.6 | 0.00 | 0.00 | 0.00 | 52 | 1024.1 |
| 20260508181302 | 12 | 218 | 1.6 | 3.2 | 0.00 | 0.00 | 0.00 | 56 | 1023.8 |
| 20260508180753 | 12 | 14 | 1.6 | 4.8 | 0.00 | 0.00 | 0.00 | 56 | 1024.2 |
| 20260508180250 | 13 | 88 | 4.8 | 8.0 | 0.00 | 0.00 | 0.00 | 55 | 1024.0 |
| 20260508175746 | 13 | 88 | 1.6 | 3.2 | 0.00 | 0.00 | 0.00 | 56 | 1024.1 |
| 20260508175243 | 13 | 20 | 6.4 | 11.3 | 0.00 | 0.00 | 0.00 | 56 | 1023.7 |
| 20260508174741 | 12 | 192 | 3.2 | 4.8 | 0.00 | 0.00 | 0.00 | 56 | 1024.1 |
| 20260508174238 | 13 | 21 | 4.8 | 8.0 | 0.00 | 0.00 | 0.00 | 56 | 1024.0 |
| 20260508173734 | 13 | 208 | 8.0 | 9.7 | 0.00 | 0.00 | 0.00 | 56 | 1024.1 |
| 20260508173231 | 13 | 300 | 8.0 | 9.7 | 0.00 | 0.00 | 0.00 | 57 | 1024.0 |
| 20260508172727 | 13 | 352 | 8.0 | 9.7 | 0.00 | 0.00 | 0.00 | 57 | 1024.0 |
| 20260508172225 | 13 | 134 | 8.0 | 9.7 | 0.00 | 0.00 | 0.00 | 55 | 1024.1 |
| 20260508171721 | 14 | 43 | 3.2 | 4.8 | 0.00 | 0.00 | 0.00 | 46 | 1023.7 |
| 20260508171217 | 13 | 274 | 1.6 | 1.6 | 0.00 | 0.00 | 0.00 | 46 | 1023.7 |
| 20260508170714 | 12 | 102 | 4.8 | 4.8 | 0.00 | 0.00 | 0.00 | 47 | 1024.0 |
| 20260508170212 | 13 | 261 | 6.4 | 8.0 | 0.00 | 0.00 | 0.00 | 47 | 1024.0 |
| 20260508165709 | 13 | 233 | 0.0 | 1.6 | 0.00 | 0.00 | 0.00 | 47 | 1024.0 |
| 20260508165206 | 13 | 72 | 3.2 | 3.2 | 0.00 | 0.00 | 0.00 | 47 | 1024.0 |
| 20260508164702 | 12 | 127 | 4.8 | 8.0 | 0.00 | 0.00 | 0.00 | 48 | 1024.1 |
| 20260508164159 | 12 | 203 | 1.6 | 1.6 | 0.00 | 0.00 | 0.00 | 48 | 1024.1 |
| 20260508163657 | 12 | 41 | 4.8 | 9.7 | 0.00 | 0.00 | 0.00 | 51 | 1024.4 |
| 20260508163154 | 12 | 66 | 6.4 | 12.9 | 0.00 | 0.00 | 0.00 | 51 | 1024.2 |
| 20260508162649 | 11 | 215 | 1.6 | 1.6 | 0.00 | 0.00 | 0.00 | 52 | 1024.1 |
| 20260508162147 | 12 | 261 | 1.6 | 3.2 | 0.00 | 0.00 | 0.00 | 53 | 1024.1 |
| 20260508161644 | 12 | 250 | 6.4 | 8.0 | 0.00 | 0.00 | 0.00 | 51 | 1024.0 |
| 20260508161142 | 12 | 44 | 3.2 | 3.2 | 0.00 | 0.00 | 0.00 | 52 | 1024.2 |
| 20260508160639 | 12 | 196 | 0.0 | 1.6 | 0.00 | 0.00 | 0.00 | 51 | 1024.5 |
| 20260508160136 | 11 | 114 | 3.2 | 3.2 | 0.00 | 0.00 | 0.00 | 52 | 1024.1 |
| 20260508155634 | 11 | 206 | 0.0 | 1.6 | 0.00 | 0.00 | 0.00 | 55 | 1023.8 |
| 20260508155131 | 11 | 184 | 0.0 | 0.0 | 0.00 | 0.00 | 0.00 | 58 | 1024.4 |
| 20260508154628 | 10 | 144 | 1.6 | 3.2 | 0.00 | 0.00 | 0.00 | 60 | 1024.4 |
| 20260508154124 | 10 | 102 | 3.2 | 4.8 | 0.00 | 0.00 | 0.00 | 63 | 1024.5 |
| 20260508153621 | 10 | 131 | 6.4 | 9.7 | 0.00 | 0.00 | 0.00 | 65 | 1024.5 |
| 20260508153117 | 8 | 205 | 1.6 | 1.6 | 0.00 | 0.00 | 0.00 | 71 | 1024.5 |
| 20260508152614 | 9 | 74 | 1.6 | 3.2 | 0.00 | 0.00 | 0.00 | 71 | 1024.9 |
| 20260508152109 | 9 | 220 | 0.0 | 0.0 | 0.00 | 0.00 | 0.00 | 69 | 1024.9 |
| 20260508151607 | 8 | 176 | 1.6 | 3.2 | 0.00 | 0.00 | 0.00 | 70 | 1024.6 |
| 20260508151104 | 8 | 148 | 4.8 | 8.0 | 0.00 | 0.00 | 0.00 | 69 | 1024.6 |
| 20260508150601 | 8 | 134 | 3.2 | 3.2 | 0.00 | 0.00 | 0.00 | 74 | 1024.7 |
| 20260508150057 | 7 | 158 | 1.6 | 3.2 | 0.00 | 0.00 | 0.00 | 74 | 1024.9 |
| 20260508145553 | 7 | 221 | 1.6 | 1.6 | 0.00 | 0.00 | 0.00 | 77 | 1024.6 |
| 20260508145050 | 7 | 212 | 1.6 | 1.6 | 0.00 | 0.00 | 0.00 | 77 | 1024.9 |
| 20260508144548 | 7 | 177 | 3.2 | 3.2 | 0.00 | 0.00 | 0.00 | 77 | 1025.1 |
| 20260508144045 | 7 | 201 | 0.0 | 0.0 | 0.00 | 0.00 | 0.00 | 79 | 1024.9 |
| 20260508143542 | 6 | 166 | 3.2 | 3.2 | 0.00 | 0.00 | 0.00 | 81 | 1024.9 |
| 20260508143039 | 6 | 228 | 1.6 | 3.2 | 0.00 | 0.00 | 0.00 | 83 | 1025.0 |
| 20260508142536 | 5 | 209 | 4.8 | 4.8 | 0.00 | 0.00 | 0.00 | 83 | 1025.4 |
| 20260508142032 | 5 | 342 | 6.4 | 8.0 | 0.00 | 0.00 | 0.00 | 85 | 1025.2 |
| 20260508141528 | 5 | 229 | 0.0 | 1.6 | 0.00 | 0.00 | 0.00 | 86 | 1025.1 |
| 20260508141026 | 5 | 223 | 3.2 | 3.2 | 0.00 | 0.00 | 0.00 | 88 | 1025.1 |
| 20260508140523 | 4 | 252 | 3.2 | 3.2 | 0.00 | 0.00 | 0.00 | 90 | 1025.5 |
| 20260508140019 | 3 | 224 | 0.0 | 0.0 | 0.00 | 0.00 | 0.00 | 91 | 1025.6 |
| 20260508135515 | 3 | 227 | 0.0 | 0.0 | 0.00 | 0.00 | 0.00 | 91 | 1025.5 |
| 20260508135012 | 3 | 220 | 0.0 | 0.0 | 0.00 | 0.00 | 0.00 | 92 | 1025.5 |
| 20260508134509 | 2 | 211 | 0.0 | 0.0 | 0.00 | 0.00 | 0.00 | 92 | 1025.4 |
| 20260508134006 | 2 | 214 | 0.0 | 0.0 | 0.00 | 0.00 | 0.00 | 92 | 1025.4 |
| 20260508133503 | 2 | 190 | 1.6 | 3.2 | 0.00 | 0.00 | 0.00 | 92 | 1025.6 |
| 20260508132959 | 2 | 186 | 1.6 | 1.6 | 0.00 | 0.00 | 0.00 | 93 | 1025.2 |
| 20260508132458 | 1 | 201 | 1.6 | 1.6 | 0.00 | 0.00 | 0.00 | 93 | 1025.7 |
| 20260508131954 | 1 | 222 | 0.0 | 0.0 | 0.00 | 0.00 | 0.00 | 92 | 1025.6 |
| 20260508131449 | 1 | 226 | 1.6 | 1.6 | 0.00 | 0.00 | 0.00 | 92 | 1025.2 |
| 20260508130946 | 1 | 208 | 1.6 | 1.6 | 0.00 | 0.00 | 0.00 | 92 | 1025.4 |
| 20260508130444 | 1 | 227 | 0.0 | 0.0 | 0.00 | 0.00 | 0.00 | 93 | 1025.2 |
| 20260508125939 | 1 | 208 | 1.6 | 1.6 | 0.00 | 0.00 | 0.00 | 93 | 1025.4 |
| 20260508125435 | 0 | 181 | 1.6 | 1.6 | 0.00 | 0.00 | 0.00 | 94 | 1025.2 |
| 20260508124933 | 0 | 206 | 0.0 | 0.0 | 0.00 | 0.00 | 0.00 | 95 | 1025.0 |
| 20260508124431 | 0 | 218 | 0.0 | 1.6 | 0.00 | 0.00 | 0.00 | 95 | 1024.9 |
| 20260508123928 | 0 | 256 | 0.0 | 1.6 | 0.00 | 0.00 | 0.00 | 95 | 1024.5 |
| 20260508123427 | 0 | 225 | 0.0 | 0.0 | 0.00 | 0.00 | 0.00 | 95 | 1024.5 |
| 20260508122923 | 0 | 199 | 0.0 | 1.6 | 0.00 | 0.00 | 0.00 | 95 | 1024.1 |
| 20260508122420 | 0 | 213 | 0.0 | 0.0 | 0.00 | 0.00 | 0.00 | 95 | 1024.2 |
| 20260508121917 | 0 | 191 | 1.6 | 1.6 | 0.00 | 0.00 | 0.00 | 94 | 1023.8 |
| 20260508121415 | 0 | 225 | 1.6 | 1.6 | 0.00 | 0.00 | 0.00 | 94 | 1023.8 |
| 20260508120913 | 0 | 173 | 1.6 | 1.6 | 0.00 | 0.00 | 0.00 | 94 | 1023.7 |
| 20260508120410 | 0 | 223 | 0.0 | 0.0 | 0.00 | 0.00 | 0.00 | 95 | 1024.0 |
| 20260508115908 | 0 | 117 | 8.0 | 9.7 | 0.00 | 0.00 | 0.00 | 94 | 1023.6 |
| 20260508115405 | 0 | 263 | 3.2 | 3.2 | 0.00 | 0.00 | 0.00 | 93 | 1023.6 |
| 20260508114901 | 0 | 354 | 6.4 | 8.0 | 0.00 | 0.00 | 0.00 | 91 | 1023.1 |
| 20260508114358 | 0 | 236 | 1.6 | 1.6 | 0.00 | 0.00 | 0.00 | 89 | 1023.1 |
| 20260508113855 | 0 | 165 | 4.8 | 4.8 | 0.00 | 0.00 | 0.00 | 91 | 1023.3 |
| 20260508113353 | 0 | 205 | 4.8 | 4.8 | 0.00 | 0.00 | 0.00 | 92 | 1023.2 |
| 20260508112850 | 0 | 221 | 4.8 | 4.8 | 0.00 | 0.00 | 0.00 | 90 | 1023.2 |
| 20260508112347 | 0 | 190 | 3.2 | 3.2 | 0.00 | 0.00 | 0.00 | 91 | 1023.2 |
| 20260508111843 | 1 | 225 | 0.0 | 1.6 | 0.00 | 0.00 | 0.00 | 90 | 1023.1 |
| 20260508111340 | 0 | 123 | 4.8 | 8.0 | 0.00 | 0.00 | 0.00 | 92 | 1023.3 |
| 20260508110837 | 0 | 150 | 3.2 | 4.8 | 0.00 | 0.00 | 0.00 | 93 | 1023.3 |
| 20260508110335 | 0 | 140 | 3.2 | 3.2 | 0.00 | 0.00 | 0.00 | 93 | 1023.1 |
| 20260508105835 | 0 | 137 | 8.0 | 8.0 | 0.00 | 0.00 | 0.00 | 93 | 1023.2 |
| 20260508105332 | 0 | 146 | 6.4 | 8.0 | 0.00 | 0.00 | 0.00 | 94 | 1023.1 |
| 20260508104828 | 0 | 236 | 4.8 | 4.8 | 0.00 | 0.00 | 0.00 | 94 | 1023.3 |
| 20260508104325 | 0 | 152 | 8.0 | 9.7 | 0.00 | 0.00 | 0.00 | 94 | 1023.1 |
| 20260508103822 | 0 | 238 | 3.2 | 3.2 | 0.00 | 0.00 | 0.00 | 94 | 1023.6 |
| 20260508103319 | 0 | 193 | 3.2 | 3.2 | 0.00 | 0.00 | 0.00 | 96 | 1023.3 |
| 20260508102817 | 0 | 232 | 0.0 | 0.0 | 0.00 | 0.00 | 0.00 | 96 | 1023.2 |
| 20260508102315 | 0 | 227 | 0.0 | 0.0 | 0.00 | 0.00 | 0.00 | 96 | 1023.1 |
| 20260508101812 | 0 | 192 | 3.2 | 3.2 | 0.00 | 0.00 | 0.00 | 96 | 1023.3 |
| 20260508101309 | 0 | 208 | 1.6 | 3.2 | 0.00 | 0.00 | 0.00 | 96 | 1023.1 |
| 20260508100807 | 0 | 253 | 3.2 | 3.2 | 0.00 | 0.00 | 0.00 | 95 | 1023.1 |
| 20260508100305 | 0 | 194 | 1.6 | 3.2 | 0.00 | 0.00 | 0.00 | 95 | 1022.8 |
| 20260508095800 | 0 | 82 | 1.6 | 1.6 | 0.00 | 0.00 | 0.00 | 96 | 1023.0 |
| 20260508095258 | 0 | 228 | 0.0 | 0.0 | 0.00 | 0.00 | 0.00 | 96 | 1022.8 |
| 20260508094755 | 0 | 194 | 0.0 | 1.6 | 0.00 | 0.00 | 0.00 | 96 | 1023.0 |
| 20260508094252 | 0 | 216 | 0.0 | 0.0 | 0.00 | 0.00 | 0.00 | 95 | 1022.8 |
| 20260508093749 | 0 | 208 | 1.6 | 1.6 | 0.00 | 0.00 | 0.00 | 95 | 1023.0 |
| 20260508093247 | 0 | 196 | 0.0 | 0.0 | 0.00 | 0.00 | 0.00 | 95 | 1022.8 |
| 20260508092743 | 0 | 227 | 1.6 | 1.6 | 0.00 | 0.00 | 0.00 | 94 | 1023.1 |
| 20260508092242 | 0 | 142 | 4.8 | 4.8 | 0.00 | 0.00 | 0.00 | 94 | 1022.7 |
| 20260508091739 | 0 | 242 | 1.6 | 1.6 | 0.00 | 0.00 | 0.00 | 93 | 1023.1 |
| 20260508091236 | 0 | 160 | 3.2 | 3.2 | 0.00 | 0.00 | 0.00 | 93 | 1023.0 |
| 20260508090734 | 0 | 226 | 0.0 | 0.0 | 0.00 | 0.00 | 0.00 | 93 | 1023.1 |
| 20260508090231 | 0 | 140 | 3.2 | 3.2 | 0.00 | 0.00 | 0.00 | 93 | 1023.0 |
| 20260508085721 | 0 | 226 | 0.0 | 0.0 | 0.00 | 0.00 | 0.00 | 92 | 1023.1 |
| 20260508085219 | 0 | 226 | 0.0 | 0.0 | 0.00 | 0.00 | 0.00 | 92 | 1022.8 |
| 20260508084714 | 1 | 206 | 1.6 | 1.6 | 0.00 | 0.00 | 0.00 | 91 | 1023.1 |
| 20260508084213 | 1 | 154 | 1.6 | 1.6 | 0.00 | 0.00 | 0.00 | 90 | 1023.3 |
| 20260508083710 | 1 | 229 | 0.0 | 0.0 | 0.00 | 0.00 | 0.00 | 89 | 1023.1 |
| 20260508083207 | 1 | 221 | 0.0 | 0.0 | 0.00 | 0.00 | 0.00 | 89 | 1023.1 |
| 20260508082702 | 1 | 198 | 1.6 | 1.6 | 0.00 | 0.00 | 0.00 | 90 | 1023.1 |
| 20260508082200 | 1 | 228 | 1.6 | 1.6 | 0.00 | 0.00 | 0.00 | 89 | 1023.5 |
| 20260508081657 | 2 | 186 | 0.0 | 0.0 | 0.00 | 0.00 | 0.00 | 89 | 1023.2 |
| 20260508081153 | 2 | 228 | 3.2 | 3.2 | 0.00 | 0.00 | 0.00 | 88 | 1023.2 |
| 20260508080650 | 1 | 200 | 1.6 | 1.6 | 0.00 | 0.00 | 0.00 | 89 | 1023.3 |
| 20260508080149 | 1 | 210 | 0.0 | 0.0 | 0.00 | 0.00 | 0.00 | 89 | 1023.6 |
| 20260508075644 | 1 | 187 | 1.6 | 3.2 | 0.00 | 0.00 | 0.00 | 88 | 1023.2 |
| 20260508075142 | 2 | 208 | 0.0 | 1.6 | 0.00 | 0.00 | 0.00 | 88 | 1023.5 |
| 20260508074639 | 2 | 226 | 0.0 | 0.0 | 0.00 | 0.00 | 0.00 | 87 | 1023.6 |
| 20260508074136 | 3 | 241 | 1.6 | 3.2 | 0.00 | 0.00 | 0.00 | 83 | 1023.7 |
| 20260508073633 | 3 | 221 | 0.0 | 1.6 | 0.00 | 0.00 | 0.00 | 82 | 1023.7 |
| 20260508073131 | 3 | 213 | 0.0 | 0.0 | 0.00 | 0.00 | 0.00 | 82 | 1024.0 |
| 20260508072627 | 3 | 213 | 0.0 | 0.0 | 0.00 | 0.00 | 0.00 | 81 | 1024.0 |
| 20260508072124 | 3 | 170 | 3.2 | 3.2 | 0.00 | 0.00 | 0.00 | 81 | 1023.7 |
| 20260508071621 | 3 | 157 | 3.2 | 4.8 | 0.00 | 0.00 | 0.00 | 81 | 1024.0 |
| 20260508071120 | 3 | 206 | 1.6 | 1.6 | 0.00 | 0.00 | 0.00 | 80 | 1023.8 |
| 20260508070617 | 2 | 166 | 4.8 | 4.8 | 0.00 | 0.00 | 0.00 | 82 | 1024.1 |
| 20260508070115 | 2 | 179 | 3.2 | 3.2 | 0.00 | 0.00 | 0.00 | 85 | 1024.1 |
| 20260508065612 | 2 | 128 | 3.2 | 4.8 | 0.00 | 0.00 | 0.00 | 84 | 1024.5 |
| 20260508065110 | 2 | 179 | 3.2 | 3.2 | 0.00 | 0.00 | 0.00 | 82 | 1024.5 |
| 20260508064608 | 2 | 195 | 1.6 | 1.6 | 0.00 | 0.00 | 0.00 | 84 | 1024.7 |
| 20260508064105 | 2 | 228 | 0.0 | 0.0 | 0.00 | 0.00 | 0.00 | 83 | 1024.5 |
| 20260508063602 | 1 | 165 | 3.2 | 3.2 | 0.00 | 0.00 | 0.00 | 84 | 1024.5 |
| 20260508063101 | 1 | 213 | 0.0 | 0.0 | 0.00 | 0.00 | 0.00 | 85 | 1024.1 |
| 20260508062558 | 1 | 227 | 0.0 | 0.0 | 0.00 | 0.00 | 0.00 | 85 | 1024.1 |
| 20260508062054 | 2 | 214 | 0.0 | 0.0 | 0.00 | 0.00 | 0.00 | 85 | 1024.2 |
| 20260508061552 | 1 | 148 | 4.8 | 4.8 | 0.00 | 0.00 | 0.00 | 85 | 1024.2 |
| 20260508061049 | 2 | 227 | 1.6 | 1.6 | 0.00 | 0.00 | 0.00 | 82 | 1024.2 |
| 20260508060545 | 1 | 145 | 4.8 | 4.8 | 0.00 | 0.00 | 0.00 | 84 | 1023.7 |
| 20260508060043 | 1 | 226 | 0.0 | 0.0 | 0.00 | 0.00 | 0.00 | 83 | 1024.1 |
| 20260508055538 | 1 | 182 | 3.2 | 3.2 | 0.00 | 0.28 | 0.28 | 84 | 1024.2 |
| 20260508055036 | 2 | 194 | 1.6 | 1.6 | 0.00 | 0.28 | 0.28 | 83 | 1024.0 |
| 20260508054532 | 2 | 149 | 4.8 | 4.8 | 0.00 | 0.28 | 0.28 | 83 | 1024.0 |
| 20260508054029 | 2 | 228 | 1.6 | 1.6 | 0.00 | 0.28 | 0.28 | 81 | 1024.2 |
| 20260508053526 | 2 | 210 | 1.6 | 1.6 | 0.00 | 0.28 | 0.28 | 82 | 1024.0 |
| 20260508053025 | 2 | 196 | 3.2 | 3.2 | 0.00 | 0.28 | 0.28 | 82 | 1024.0 |
| 20260508052521 | 2 | 214 | 0.0 | 1.6 | 0.00 | 0.28 | 0.28 | 81 | 1023.7 |
| 20260508052017 | 2 | 226 | 0.0 | 0.0 | 0.00 | 0.28 | 0.28 | 81 | 1023.6 |
| 20260508051514 | 2 | 208 | 0.0 | 1.6 | 0.00 | 0.28 | 0.28 | 82 | 1024.2 |
| 20260508051009 | 2 | 218 | 0.0 | 0.0 | 0.00 | 0.28 | 0.28 | 80 | 1023.7 |
| 20260508050506 | 2 | 188 | 1.6 | 1.6 | 0.00 | 0.28 | 0.28 | 80 | 1023.5 |
| 20260508050003 | 3 | 234 | 1.6 | 1.6 | 0.00 | 0.28 | 0.28 | 79 | 1023.6 |
| 20260508045500 | 3 | 197 | 0.0 | 0.0 | 0.00 | 0.28 | 0.28 | 78 | 1023.5 |
| 20260508044957 | 3 | 223 | 1.6 | 1.6 | 0.00 | 0.28 | 0.28 | 80 | 1023.5 |
| 20260508044454 | 3 | 211 | 1.6 | 1.6 | 0.00 | 0.28 | 0.28 | 80 | 1023.5 |
| 20260508043950 | 3 | 177 | 1.6 | 1.6 | 0.00 | 0.28 | 0.28 | 81 | 1023.3 |
| 20260508043447 | 3 | 240 | 3.2 | 3.2 | 0.00 | 0.28 | 0.28 | 77 | 1023.6 |
| 20260508042943 | 3 | 195 | 1.6 | 3.2 | 0.00 | 0.28 | 0.28 | 77 | 1023.6 |
| 20260508042441 | 3 | 219 | 0.0 | 0.0 | 0.00 | 0.28 | 0.28 | 79 | 1023.5 |
| 20260508041938 | 3 | 226 | 0.0 | 0.0 | 0.00 | 0.28 | 0.28 | 79 | 1023.5 |
| 20260508041434 | 3 | 219 | 0.0 | 0.0 | 0.00 | 0.28 | 0.28 | 78 | 1023.1 |
| 20260508040931 | 3 | 143 | 4.8 | 4.8 | 0.00 | 0.28 | 0.28 | 80 | 1023.5 |
| 20260508040429 | 3 | 135 | 3.2 | 3.2 | 0.00 | 0.28 | 0.28 | 80 | 1023.2 |
| 20260508035926 | 3 | 233 | 0.0 | 0.0 | 0.00 | 0.28 | 0.28 | 79 | 1023.3 |